Location: *
(44.3683°N, 6.6958°E)
Time: 14:39:15
(UTC+00:00)

Cosmos 2278 Rocket - Pass Details

Date: 14 October 2019
Orbit: 840 x 847 km, 71.0° (Epoch: 12 November)

Event Time Altitude Azimuth Distance (km) Brightness Sun altitude
Rises 20:19:42 0° 238° (WSW) 3,395 5.7 -37.0°
Reaches altitude 10° 20:22:30 10° 250° (WSW) 2,465 5.0 -37.4°
Maximum altitude 20:27:18 28° 308° (NW) 1,549 4.0 -38.2°
Enters shadow 20:28:20 26° 327° (NNW) 1,605 4.0 -38.3°
